Content
SEND FEEDBACK

Daily
Averages
Monthly
Summary
United States of America

ASH MOUNTAIN, CALIFORNIA


Home > North America > United States > California
Elevation: 2078 feet     Latitude: 36 29N     Longitude: 118 50W

WEATHER
 
SELECT A DAY
Number of Records: 446,860;   Date Range: 1/1/95 - 7/23/14
 
SHARE

PRINT THIS DATA

[ ← Previous Day ]
WEATHER ALMANAC - JANUARY 23, 2013
[ Next Day → ]
[ °C ]   °F
Weather ElementAverageHighLow
Temperature51.9 °F64.4 °F (6:35 pm)39.2 °F (12:55 am)
Dewpoint38.1 °F46.4 °F (11:35 pm)32 °F (1:15 am)
Humidity61.1 %81 % (12:55 am)34 % (6:35 pm)
Barometer30.06 in30.11 in (10:55 am)30.02 in (5:15 pm)
Wind Speed3.3 mph13.8 mph (5:35 pm)
Wind Gust19.6 mph (6:55 pm)
Weather ElementAverage
Visibility9.9 mi
Wind DirectionENE (81.5 °)

Weather ElementTotal
Precipitation---
Heating Degree Days13.2 (Base 65)
Growing Degree Days1.8 (Base 50)
Averaged from 71 records on January 23, 2013
WEATHER CONDITIONS BREAKOUT
WIND DIRECTION BREAKOUT
WEATHER BY HOUR - JANUARY 23, 2013
[ °C ]   °F
Local TimeTemperatureDewpointHumidityBarometerVisibilityWind DirectionWind SpeedGust SpeedPrecipitationEventsConditions
12:35 AM41.0 °F33.8 °F76 %30.07 in10.0 miCalmClear
12:55 AM39.2 °F33.8 °F81 %30.07 in10.0 miESE (110°)3.5 mphClear
1:15 AM39.2 °F32.0 °F75 %30.07 in10.0 miCalmClear
1:35 AM39.2 °F33.8 °F81 %30.06 in10.0 miCalmClear
1:55 AM41.0 °F33.8 °F76 %30.06 in10.0 miCalmClear
2:15 AM41.0 °F33.8 °F76 %30.06 in10.0 miESE (120°)4.6 mphClear
2:35 AM41.0 °F33.8 °F76 %30.06 in10.0 miESE (110°)3.5 mphClear
2:55 AM41.0 °F33.8 °F76 %30.05 in10.0 miCalmClear
3:15 AM39.2 °F33.8 °F81 %30.05 in10.0 miCalmClear
3:35 AM39.2 °F33.8 °F81 %30.04 in10.0 miSSE (150°)3.5 mphClear
3:55 AM42.8 °F33.8 °F70 %30.04 in10.0 miESE (120°)5.8 mphClear
4:15 AM41.0 °F33.8 °F76 %30.04 in10.0 miESE (110°)3.5 mphClear
4:35 AM42.8 °F33.8 °F70 %30.04 in10.0 miCalmClear
4:55 AM41.0 °F33.8 °F76 %30.04 in10.0 miCalmClear
5:15 AM41.0 °F35.6 °F81 %30.04 in10.0 miCalmClear
5:35 AM39.2 °F33.8 °F81 %30.04 in10.0 miCalmClear
5:55 AM39.2 °F33.8 °F81 %30.04 in10.0 miNE (40°)3.5 mphClear
6:15 AM42.8 °F33.8 °F70 %30.04 in10.0 miENE (70°)5.8 mphClear
6:35 AM42.8 °F33.8 °F70 %30.04 in10.0 miCalmClear
6:55 AM42.8 °F35.6 °F76 %30.03 in10.0 miCalmClear
7:15 AM42.8 °F35.6 °F76 %30.03 in10.0 miCalmClear
7:35 AM42.8 °F35.6 °F76 %30.03 in10.0 miCalmClear
7:55 AM42.8 °F35.6 °F76 %30.04 in10.0 miCalmClear
8:15 AM42.8 °F35.6 °F76 %30.06 in10.0 miCalmClear
8:35 AM46.4 °F35.6 °F66 %30.06 in10.0 miCalmClear
8:55 AM48.2 °F37.4 °F66 %30.06 in10.0 miEast (100°)3.5 mphClear
9:15 AM48.2 °F37.4 °F66 %30.07 in10.0 miCalmClear
9:35 AM50.0 °F39.2 °F66 %30.08 in10.0 miEast (80°)3.5 mphClear
9:55 AM53.6 °F37.4 °F54 %30.09 in10.0 miCalmClear
10:15 AM55.4 °F39.2 °F54 %30.09 in10.0 miCalmClear
10:35 AM57.2 °F37.4 °F48 %30.10 in10.0 miCalmClear
10:55 AM55.4 °F39.2 °F54 %30.11 in10.0 miWest (280°)6.9 mphClear
11:15 AM55.4 °F39.2 °F54 %30.11 in9.0 miWNW (300°)3.5 mphClear
11:35 AM57.2 °F42.8 °F59 %30.10 in8.0 miNorth (360°)4.6 mphClear
11:55 AM59.0 °F37.4 °F45 %30.09 in10.0 miNNE (20°)3.5 mphClear
12:15 PM59.0 °F39.2 °F48 %30.08 in9.0 miNNE (30°)3.5 mphClear
12:35 PM60.8 °F39.2 °F45 %30.06 in9.0 miNE (40°)5.8 mphClear
12:55 PM60.8 °F39.2 °F45 %30.05 in9.0 miENE (60°)4.6 mphClear
1:15 PM60.8 °F39.2 °F45 %30.04 in9.0 miCalmClear
1:35 PM60.8 °F41.0 °F48 %30.04 in9.0 miCalmClear
1:55 PM60.8 °F41.0 °F48 %30.03 in10.0 miCalmClear
2:15 PM60.8 °F42.8 °F52 %30.03 in10.0 miWSW (240°)3.5 mphClear
2:35 PM60.8 °F44.6 °F55 %30.03 in8.0 miCalmPartly Cloudy
2:55 PM59.0 °F44.6 °F59 %30.04 in10.0 miSouth (170°)3.5 mphMostly Cloudy
3:15 PM57.2 °F44.6 °F63 %30.04 in10.0 miSE (140°)5.8 mphOvercast
3:35 PM59.0 °F42.8 °F55 %30.04 in10.0 miEast (80°)5.8 mphOvercast
3:55 PM57.2 °F44.6 °F63 %30.05 in10.0 miSE (130°)6.9 mphOvercast
4:15 PM57.2 °F44.6 °F63 %30.04 in10.0 miCalmOvercast
4:35 PM57.2 °F44.6 °F63 %30.04 in10.0 miEast (90°)4.6 mphOvercast
4:55 PM59.0 °F42.8 °F55 %30.03 in10.0 miENE (70°)11.5 mphOvercast
5:15 PM60.8 °F39.2 °F45 %30.02 in10.0 miENE (70°)10.4 mphOvercast
5:35 PM60.8 °F37.4 °F42 %30.02 in10.0 miENE (70°)13.8 mphOvercast
5:55 PM62.6 °F35.6 °F37 %30.03 in10.0 miEast (90°)3.5 mphOvercast
6:15 PM62.6 °F35.6 °F37 %30.03 in10.0 miNE (50°)6.9 mphOvercast
6:35 PM64.4 °F35.6 °F34 %30.03 in10.0 miENE (60°)3.5 mphOvercast
6:55 PM62.6 °F37.4 °F39 %30.05 in10.0 miSW (220°)8.1 mph19.6 mphOvercast
7:15 PM60.8 °F39.2 °F45 %30.06 in10.0 miSSW (200°)3.5 mphOvercast
7:35 PM59.0 °F39.2 °F48 %30.06 in10.0 miCalmOvercast
7:55 PM57.2 °F39.2 °F51 %30.06 in10.0 miSSE (150°)4.6 mphOvercast
8:15 PM55.4 °F39.2 °F54 %30.08 in10.0 miESE (120°)8.1 mphOvercast
8:35 PM55.4 °F39.2 °F54 %30.08 in10.0 miSE (140°)5.8 mphOvercast
8:55 PM55.4 °F39.2 °F54 %30.09 in10.0 miSSW (210°)3.5 mphOvercast
9:15 PM55.4 °F39.2 °F54 %30.10 in10.0 miWSW (240°)3.5 mphOvercast
9:35 PM55.4 °F39.2 °F54 %30.09 in10.0 miNW (320°)5.8 mphOvercast
9:55 PM55.4 °F41.0 °F58 %30.09 in10.0 miNorth (360°)9.2 mphOvercast
10:15 PM55.4 °F41.0 °F58 %30.08 in10.0 miNorth (10°)8.1 mphMostly Cloudy
10:35 PM57.2 °F39.2 °F51 %30.09 in10.0 miNE (50°)5.8 mphOvercast
10:55 PM57.2 °F39.2 °F51 %30.09 in10.0 miSSE (160°)5.8 mphOvercast
11:15 PM59.0 °F42.8 °F55 %30.08 in10.0 miESE (110°)6.9 mphOvercast
11:35 PM55.4 °F46.4 °F72 %30.08 in10.0 miSE (140°)3.5 mphOvercast
11:55 PM55.4 °F46.4 °F72 %30.07 in10.0 miCalmOvercast
Hourly data recorded from KPTV, located miles away from Ash Mountain, California







STORIES FROM OUR PARTNERS